Simultaneous Nadir Overpasses (SNOs) Predictions

Prediction of SNOs between FY3D and METOP-A Satellite Orbit:

Table of predicted SNOs for the next 14.0 days since TLE Epoch: 4/4/2020
Index Date (FY3D) Time (FY3D) Lat,Lon (FY3D) SZA (FY3D ) Date (METOP-A) Time (METOP-A) Lat,Lon (METOP-A) SZA (METOP-A ) Distance(km) Time Diff (sec)
1 04/12/2020 19:20:57 -76.08, 54.09 112.51 04/12/2020 19:22:02 -76.00, 57.63 112.82 95.46 65
2 04/12/2020 20:11:37 75.85,-137.82 67.21 04/12/2020 20:12:46 75.80,-135.68 67.01 58.72 69
3 04/12/2020 21:02:19 -75.75, 29.81 112.92 04/12/2020 21:03:30 -75.70, 31.33 113.09 42.23 71
4 04/12/2020 21:53:00 75.57,-162.28 66.85 04/12/2020 21:54:13 75.55,-161.81 66.78 13.23 73
5 04/12/2020 22:43:42 -75.47, 5.33 113.28 04/12/2020 22:44:56 -75.49, 5.35 113.28 2.77 74
6 04/12/2020 23:34:27 75.47, 172.65 66.71 04/12/2020 23:35:36 75.48, 172.65 66.70 1.43 69
7 04/13/2020 00:25:11 -75.47, -20.03 113.31 04/13/2020 00:26:18 -75.48, -20.04 113.32 1.10 67
8 04/13/2020 01:15:56 75.46, 147.29 66.68 04/13/2020 01:16:58 75.46, 147.25 66.66 1.33 62
9 04/13/2020 02:06:40 -75.46, -45.39 113.34 04/13/2020 02:07:40 -75.46, -45.44 113.36 1.82 60
10 04/13/2020 02:57:25 75.46, 121.93 66.65 04/13/2020 02:58:20 75.44, 121.85 66.62 3.20 55
11 04/13/2020 03:48:09 -75.46, -70.74 113.37 04/13/2020 03:49:01 -75.48, -70.70 113.36 3.01 52
12 04/13/2020 04:38:54 75.46, 96.57 66.62 04/13/2020 04:39:41 75.47, 96.59 66.62 1.50 47
13 04/13/2020 05:29:38 -75.46, -96.10 113.40 04/13/2020 05:30:23 -75.46, -96.10 113.40 1.01 45
14 04/13/2020 06:20:23 75.45, 71.22 66.59 04/13/2020 06:21:03 75.45, 71.19 66.58 0.76 40
15 04/13/2020 07:11:07 -75.45,-121.46 113.43 04/13/2020 07:11:45 -75.45,-121.50 113.44 1.25 38
16 04/13/2020 08:01:52 75.45, 45.86 66.56 04/13/2020 08:02:25 75.43, 45.79 66.54 2.77 33
17 04/13/2020 08:52:36 -75.45,-146.82 113.46 04/13/2020 08:53:07 -75.43,-146.90 113.49 3.26 31
18 04/13/2020 09:43:21 75.45, 20.50 66.53 04/13/2020 09:43:46 75.46, 20.53 66.53 1.78 25
19 04/13/2020 10:34:05 -75.44,-172.18 113.49 04/13/2020 10:34:28 -75.45,-172.16 113.49 1.28 23
20 04/13/2020 11:24:50 75.44, -4.86 66.50 04/13/2020 11:25:08 75.44, -4.87 66.49 0.33 18
21 04/13/2020 12:15:34 -75.44, 162.46 113.52 04/13/2020 12:15:50 -75.43, 162.45 113.53 0.79 16
22 04/13/2020 13:06:19 75.44, -30.22 66.47 04/13/2020 13:06:30 75.42, -30.26 66.45 2.41 11
23 04/13/2020 13:57:03 -75.44, 137.10 113.55 04/13/2020 13:57:12 -75.42, 137.05 113.57 2.86 9
24 04/13/2020 14:47:48 75.43, -55.58 66.44 04/13/2020 14:47:51 75.45, -55.52 66.45 2.20 3
25 04/13/2020 15:38:32 -75.43, 111.74 113.58 04/13/2020 15:38:33 -75.44, 111.79 113.57 1.76 1
26 04/13/2020 16:29:17 75.43, -80.94 66.41 04/13/2020 16:29:13 75.43, -80.92 66.41 0.62 4
27 04/13/2020 17:20:01 -75.43, 86.38 113.61 04/13/2020 17:19:55 -75.42, 86.39 113.61 0.75 6
28 04/13/2020 18:10:46 75.43,-106.30 66.38 04/13/2020 18:10:35 75.41,-106.32 66.37 2.17 11
29 04/13/2020 19:01:30 -75.43, 61.02 113.64 04/13/2020 19:01:17 -75.40, 60.99 113.66 2.56 13
30 04/13/2020 19:52:15 75.42,-131.66 66.35 04/13/2020 19:51:56 75.44,-131.58 66.36 2.69 19
31 04/13/2020 20:42:59 -75.42, 35.66 113.67 04/13/2020 20:42:38 -75.43, 35.73 113.66 2.33 21
32 04/13/2020 21:33:44 75.42,-157.02 66.32 04/13/2020 21:33:18 75.42,-156.98 66.32 1.19 26
33 04/13/2020 22:24:28 -75.42, 10.30 113.70 04/13/2020 22:24:00 -75.41, 10.33 113.70 1.16 28
34 04/13/2020 23:15:13 75.42, 177.62 66.29 04/13/2020 23:14:40 75.40, 177.62 66.28 2.08 33
35 04/14/2020 00:05:57 -75.42, -15.06 113.73 04/14/2020 00:05:22 -75.39, -15.06 113.74 2.41 35
36 04/14/2020 00:56:42 75.41, 152.26 66.26 04/14/2020 00:56:01 75.43, 152.36 66.28 3.23 41
37 04/14/2020 01:47:26 -75.41, -40.42 113.76 04/14/2020 01:46:43 -75.42, -40.32 113.74 2.94 43
38 04/14/2020 02:38:11 75.41, 126.90 66.23 04/14/2020 02:37:23 75.41, 126.97 66.24 1.79 48
39 04/14/2020 03:28:55 -75.41, -65.78 113.79 04/14/2020 03:28:05 -75.40, -65.72 113.78 1.73 50
40 04/14/2020 04:19:40 75.41, 101.54 66.20 04/14/2020 04:18:45 75.39, 101.57 66.20 2.18 55
41 04/14/2020 05:10:24 -75.40, -91.14 113.82 04/14/2020 05:09:27 -75.38, -91.12 113.83 2.44 57
42 04/14/2020 06:01:09 75.40, 76.18 66.17 04/14/2020 06:00:06 75.41, 76.31 66.19 3.79 63
43 04/14/2020 06:51:53 -75.40,-116.50 113.85 04/14/2020 06:50:48 -75.41,-116.38 113.83 3.56 65
44 04/14/2020 07:42:38 75.40, 50.82 66.14 04/14/2020 07:41:28 75.39, 50.91 66.15 2.41 70
45 04/14/2020 08:33:22 -75.40,-141.86 113.88 04/14/2020 08:32:10 -75.39,-141.78 113.87 2.36 72
46 04/14/2020 09:24:05 75.30, 25.75 66.00 04/14/2020 09:22:51 75.33, 25.37 66.07 11.20 74
47 04/14/2020 10:14:48 -75.25,-166.79 114.07 04/14/2020 10:13:35 -75.23,-167.59 114.02 22.86 73
48 04/14/2020 11:05:28 75.01, 1.23 65.64 04/14/2020 11:04:19 75.02, -0.85 65.81 59.88 69
49 04/14/2020 11:56:11 -74.96, 168.68 114.43 04/14/2020 11:55:03 -74.92, 166.20 114.29 71.77 68




NCC Satellite Simultaneous Nadir Overpasses (SNOs) Prediction Service
